Wind_Speed
113 113 114 114 114 114 114 115 115 114 115 115 116 116 116 117 117 118 119 119 120 120 121 121 122 122 122 123 123 123 124 124 124 125 125 125 125 125 126 126 126 126 127 127 127 127 127 127 126 125 125 124 123 121 120 119 118 117 116 115 114 114 113 112 112 111 110 110 109 108 107 106 105 104 104 103 102 102 101 100 99 99 98 97 97 96
111 112 112 112 112 112 113 113 114 114 114 114 115 116 116 117 118 119 119 120 121 121 122 122 123 123 124 124 125 125 126 126 126 127 127 127 127 127 128 128 128 129 129 129 129 128 128 127 126 125 124 123 121 120 119 118 117 116 115 115 114 113 113 112 112 111 111 110 109 108 108 107 105 104 103 103 102 101 100 100 99 98 98 97 96 96
110 111 111 111 111 111 112 113 113 113 114 114 115 116 117 117 118 119 120 121 122 122 123 123 124 125 125 126 127 127 128 128 129 129 129 129 130 130 130 131 131 131 130 130 129 128 127 126 125 124 122 121 120 119 118 117 117 116 115 114 114 114 113 113 112 112 111 110 109 109 108 107 106 105 103 102 102 101 100 99 99 98 97 97 96 96
110 111 111 112 112 112 112 113 113 114 114 115 116 116 117 118 119 120 121 122 123 124 125 125 126 127 127 128 129 130 130 131 131 131 132 132 132 132 132 132 132 131 130 129 128 127 126 124 123 122 121 120 119 118 118 117 116 116 115 115 114 114 113 113 112 112 111 110 109 109 108 107 106 105 104 103 102 101 100 99 99 98 98 97 97 96
112 112 113 113 113 114 114 115 115 115 116 117 117 118 119 120 121 122 123 124 125 126 127 128 129 129 130 131 132 132 133 133 134 134 134 134 134 134 133 132 131 130 129 128 127 125 124 123 122 121 120 119 119 118 117 117 116 116 115 115 115 114 113 113 112 111 111 110 109 108 107 107 106 105 104 103 102 101 100 100 99 98 98 97 97 97
115 116 116 116 116 117 117 118 118 119 119 120 121 121 122 123 124 125 126 127 128 129 130 131 132 132 133 134 134 135 135 136 136 136 136 135 134 134 132 131 130 129 128 127 126 124 123 122 121 120 120 119 118 118 117 117 116 116 116 115 115 114 113 112 112 111 110 109 108 108 107 106 106 105 104 104 103 102 101 101 100 99 98 98 97 97
120 120 121 121 121 122 122 123 123 124 124 125 125 126 127 127 128 129 130 130 131 132 133 134 134 135 136 136 136 137 137 137 136 136 135 134 133 132 131 130 129 128 127 126 125 124 123 122 121 120 120 119 118 118 118 117 117 116 116 115 114 114 113 112 111 110 109 108 108 107 107 106 106 105 105 104 104 103 103 102 101 100 99 98 98 97
125 125 126 126 126 127 127 128 128 128 129 130 130 131 131 132 132 132 133 133 134 134 135 136 136 136 136 136 136 136 136 135 135 134 133 132 131 130 130 128 128 127 126 125 124 123 123 122 121 121 120 120 119 118 118 117 117 116 115 115 114 113 112 111 111 110 109 108 107 107 106 106 106 105 105 105 105 104 104 103 102 101 100 99 98 97
128 129 129 129 129 130 131 131 131 131 132 132 133 133 133 134 133 133 133 134 134 134 134 135 135 135 135 134 134 133 133 132 132 131 130 130 129 128 128 127 126 126 125 124 124 123 123 122 121 121 120 120 119 119 118 118 117 116 115 114 114 113 112 111 110 109 109 108 108 107 107 106 106 106 105 105 105 104 104 103 102 101 100 98 97 96
127 127 128 128 129 129 130 131 131 131 131 131 131 132 132 132 132 132 132 132 132 132 132 132 132 132 132 131 130 130 130 129 129 128 128 127 127 127 126 126 125 125 124 124 123 123 122 122 121 121 120 120 119 119 118 117 117 116 115 114 113 112 112 111 110 110 109 108 108 108 107 107 106 106 105 105 104 104 103 102 101 100 99 98 96 95
122 123 124 125 126 126 127 128 128 128 128 128 129 129 128 129 129 129 130 130 130 129 129 129 129 129 129 129 128 128 127 127 127 126 126 125 125 125 125 125 124 124 124 123 123 122 122 121 121 121 120 120 119 118 117 117 116 115 114 113 112 112 111 111 110 110 109 109 108 108 107 107 106 105 105 104 103 102 101 101 100 99 98 97 95 94
119 120 121 122 123 124 124 125 125 125 126 126 126 127 127 126 126 126 127 127 128 127 127 127 127 127 127 127 126 126 125 125 125 124 124 124 124 124 123 123 123 123 123 122 122 122 121 121 120 120 119 119 118 117 116 115 114 114 113 112 112 111 111 110 110 110 109 109 108 108 107 106 105 104 103 102 102 101 100 99 98 98 97 96 95 94
116 117 118 119 120 121 122 123 123 123 123 124 124 125 125 125 124 124 125 125 125 125 125 125 125 125 125 125 124 124 124 123 123 123 122 122 122 122 122 122 122 122 121 121 121 121 120 120 120 119 118 118 117 116 115 114 113 112 112 111 111 110 110 110 109 109 108 108 107 106 106 105 104 103 102 101 100 100 99 98 98 97 96 96 95 94
113 114 116 117 118 119 119 120 121 121 121 122 122 122 123 122 122 122 123 123 123 123 122 123 123 123 123 123 122 122 122 121 121 121 121 121 121 121 120 120 120 120 120 120 120 120 119 119 119 118 117 117 116 115 114 113 112 112 111 111 110 110 109 109 108 107 107 106 105 104 104 103 102 102 101 100 100 99 99 98 98 98 97 97 96 96
111 112 113 115 115 116 117 117 118 119 119 119 119 119 120 120 120 120 120 121 121 120 120 121 121 121 121 121 120 120 120 120 119 119 120 119 119 119 119 119 119 119 119 119 119 119 118 118 117 117 116 116 115 114 113 113 112 111 111 110 109 108 108 107 106 105 105 104 103 102 102 102 101 101 101 100 100 100 100 100 99 99 99 99 98 98
110 111 112 113 113 114 114 115 115 116 116 116 116 117 117 118 118 118 118 118 118 118 118 119 119 119 119 119 118 118 118 118 118 118 118 118 118 117 117 117 118 118 118 117 117 117 116 116 116 115 115 115 114 114 113 112 111 111 110 109 108 107 106 105 104 103 103 102 102 101 101 101 101 101 101 101 101 101 101 102 101 101 101 101 101 100
109 110 110 111 112 112 112 112 113 113 114 114 114 114 115 115 115 115 116 116 116 116 116 116 117 117 118 117 117 116 115 116 116 116 116 116 116 116 115 116 116 117 116 116 116 115 115 115 114 114 114 114 113 113 112 111 110 109 108 107 106 104 103 103 102 102 101 101 101 101 101 102 102 102 103 103 103 103 104 104 104 104 104 104 104 103
108 109 109 109 110 110 111 111 111 111 111 112 112 112 112 113 113 113 114 114 114 114 114 115 115 115 116 116 116 114 113 114 114 114 115 115 115 115 114 115 115 115 115 114 114 114 113 113 113 113 113 113 112 112 111 110 109 107 106 105 104 103 102 102 101 101 102 102 102 103 103 103 104 104 105 105 105 106 106 106 106 107 107 107 106 106
107 108 108 108 109 109 109 109 109 109 110 110 110 110 111 111 111 111 111 112 112 112 113 113 113 113 114 114 114 113 112 112 113 113 114 114 114 114 113 113 113 113 113 113 113 112 112 112 112 112 111 111 110 110 109 108 107 106 105 104 103 103 102 102 102 102 103 103 104 104 105 105 106 106 107 107 107 108 108 108 109 109 109 109 109 109
107 107 107 107 107 108 108 108 108 108 108 108 108 109 109 109 109 110 110 110 110 110 111 111 112 112 112 112 112 112 111 111 112 112 112 113 112 112 112 111 112 111 111 111 111 111 110 110 110 109 109 109 108 107 107 106 106 105 105 104 104 104 104 104 104 104 105 105 106 107 107 108 108 109 109 109 110 110 110 110 111 111 111 111 111 111
106 106 106 106 106 106 107 106 106 106 106 106 107 107 107 108 108 108 109 109 109 109 109 110 110 110 110 111 111 111 110 110 110 110 110 110 110 110 110 110 110 110 110 110 109 109 108 108 107 107 107 106 106 106 106 106 106 106 106 106 106 106 106 107 107 107 107 108 108 109 109 110 110 111 111 111 112 112 112 112 112 113 113 113 113 113
105 105 105 104 104 105 105 105 105 105 105 105 105 106 106 106 106 107 107 107 107 108 108 108 109 109 109 110 110 110 109 109 109 108 108 108 109 109 108 108 108 108 108 107 107 106 106 105 105 105 105 105 106 106 106 106 107 107 108 108 108 109 109 109 110 110 110 110 111 111 111 112 112 113 113 113 114 114 114 114 114 114 114 114 114 114
103 103 103 103 103 103 103 103 103 103 103 103 104 104 104 104 105 105 105 106 106 106 107 107 108 108 108 108 109 108 108 107 107 106 106 106 107 107 106 106 105 105 105 105 104 104 104 104 104 104 105 106 106 107 107 108 108 109 110 110 110 111 111 112 112 112 113 113 113 113 114 114 114 114 115 115 115 115 115 115 115 115 115 115 115 115
101 101 101 101 101 101 101 101 101 101 101 101 102 102 102 103 103 104 104 104 105 105 106 106 106 107 107 107 107 107 106 106 105 104 104 104 105 105 104 103 103 103 103 102 102 102 103 103 104 105 106 106 107 108 109 110 110 111 111 112 113 113 114 114 114 115 115 115 115 115 115 115 115 115 115 115 115 115 115 115 115 115 114 114 114 114
100 99 99 99 99 99 99 99 99 100 100 100 100 100 101 101 102 102 103 103 103 104 104 104 105 105 105 105 105 105 105 104 103 103 102 102 102 102 102 101 101 101 101 101 101 102 103 104 105 106 107 108 109 110 111 111 112 113 113 114 115 115 116 116 116 117 117 117 117 116 116 116 116 115 115 114 114 114 113 113 113 112 112 112 111 111
97 97 97 97 97 97 97 97 98 98 98 98 99 99 100 100 101 101 102 102 102 102 102 102 103 103 103 103 103 103 103 102 101 101 100 100 100 100 100 99 99 100 100 101 102 102 103 105 106 107 108 109 110 111 112 113 114 115 115 116 116 117 117 118 118 118 117 117 117 116 115 115 114 113 112 112 111 110 110 109 109 108 108 108 107 107
95 95 95 95 95 95 96 96 96 97 97 97 98 98 99 99 100 100 100 100 100 100 100 100 101 101 101 101 101 101 101 100 99 98 98 98 98 99 99 99 99 99 100 101 102 103 105 106 107 108 109 110 112 113 114 115 115 116 117 117 118 118 118 118 118 117 116 115 115 114 113 112 111 110 109 108 107 106 106 105 104 104 104 103 103 103
93 93 93 94 94 94 94 95 95 96 96 96 97 97 97 97 98 98 98 98 98 98 98 98 98 98 99 99 99 99 98 98 97 97 97 97 98 99 99 99 100 100 101 102 103 105 106 107 109 110 111 112 113 114 115 116 117 117 118 118 118 118 117 117 116 114 113 112 111 110 108 107 106 105 104 104 103 102 101 101 100 100 99 99 99 99
92 92 92 92 92 93 93 94 94 94 95 95 95 95 95 95 95 96 96 96 96 96 96 96 96 96 96 96 96 97 97 97 96 96 96 97 98 99 100 100 101 101 102 103 105 106 107 109 110 111 112 113 114 115 116 117 118 118 118 118 117 116 115 113 112 111 109 108 106 105 104 103 102 101 100 100 99 98 98 97 97 96 96 96 96 96
90 90 91 91 91 92 92 92 93 93 93 93 93 93 93 93 93 93 94 94 94 94 94 94 94 94 94 94 95 95 96 96 96 95 96 97 98 100 100 101 102 103 103 104 106 107 109 110 111 112 113 114 115 116 117 117 117 117 116 115 114 112 111 109 107 106 104 103 102 101 100 99 99 98 97 97 96 95 95 94 93 93 93 93 93 93
89 89 90 90 90 90 90 90 91 91 91 91 91 91 91 91 91 91 91 91 91 91 91 92 92 92 92 93 94 95 95 95 95 95 96 97 99 100 101 102 103 104 105 105 107 108 110 111 112 113 114 115 115 116 116 115 115 114 112 111 109 108 106 104 103 102 101 100 99 98 97 97 96 95 94 94 93 92 92 91 91 90 90 90 90 90
88 88 88 88 88 88 88 88 88 89 89 89 89 89 89 89 89 89 89 89 89 89 90 90 91 91 91 92 93 94 95 95 96 96 96 98 100 101 102 103 105 106 106 107 108 109 110 112 113 114 114 114 114 114 113 112 111 109 108 106 105 104 102 101 100 99 98 97 96 95 95 94 93 92 91 91 90 89 89 88 88 87 87 87 87 87
86 86 86 86 86 86 86 86 86 87 87 87 87 87 87 87 87 87 87 87 88 88 89 89 90 90 91 91 92 93 94 95 96 96 97 99 101 102 103 105 106 107 108 108 109 110 110 112 112 113 113 113 112 111 110 108 107 105 104 103 102 100 99 98 97 96 95 94 93 93 92 91 90 89 88 88 87 86 86 85 85 84 84 84 84 84
84 84 84 84 84 84 84 84 85 85 85 85 85 85 85 85 85 86 86 86 87 87 88 88 89 90 90 91 92 93 94 95 96 97 98 100 101 103 104 105 107 108 109 110 110 111 111 111 111 111 111 110 109 107 106 104 103 102 101 100 99 98 97 96 95 94 93 92 91 90 89 88 87 86 85 84 84 83 83 82 82 81 81 80 80 80
82 82 82 82 82 82 83 82 82 82 82 82 83 83 83 84 84 85 85 86 86 87 87 88 89 89 90 91 93 94 95 96 97 98 99 101 102 104 105 106 107 108 109 110 111 111 111 110 109 108 107 106 105 104 102 101 100 99 98 97 96 96 95 94 92 91 90 89 88 87 85 84 83 82 82 81 80 80 79 79 79 78 78 77 77 77
81 81 81 81 81 80 80 80 80 80 80 81 81 82 82 83 84 84 85 86 86 87 87 88 89 89 90 92 93 95 96 98 99 99 100 102 103 104 106 107 108 109 110 111 111 110 110 108 107 105 104 103 102 101 100 98 97 97 96 95 94 93 92 91 90 88 87 86 85 84 82 81 80 79 78 77 77 76 76 76 76 75 75 75 74 74
79 79 79 79 78 78 78 79 79 79 80 80 81 81 82 83 83 84 85 85 86 86 87 88 89 90 91 92 94 95 97 98 99 100 101 102 104 105 106 108 109 110 110 110 110 109 107 106 104 102 101 100 99 98 97 96 95 94 93 92 91 90 89 88 87 85 84 83 82 81 80 78 77 76 75 74 73 73 73 73 72 72 72 72 72 71
77 77 77 77 77 77 77 78 78 79 79 80 81 81 82 83 83 84 85 85 86 87 88 89 90 91 92 93 94 96 97 98 100 101 102 103 104 105 107 108 109 109 109 109 108 106 104 102 101 100 98 97 97 96 95 94 93 92 91 90 89 88 86 85 84 82 81 80 79 78 77 75 74 73 72 71 70 70 70 69 69 69 69 69 69 69
75 75 75 76 76 76 77 78 78 79 79 80 81 81 82 83 83 84 85 86 87 88 89 90 91 92 94 94 96 97 98 99 100 101 102 104 105 106 107 108 109 109 108 106 105 103 101 99 98 97 96 95 94 94 92 91 90 89 88 87 86 85 84 82 81 79 78 77 76 75 74 73 71 70 69 68 68 67 67 66 66 66 66 66 66 66
74 74 75 75 76 76 77 78 78 79 79 80 81 81 82 83 84 85 86 86 87 89 90 91 92 93 95 96 96 97 98 99 101 102 103 104 105 106 107 108 107 107 105 104 102 100 98 97 96 95 94 93 92 91 90 88 87 86 85 84 83 82 81 79 78 77 75 74 73 72 71 70 69 68 67 66 65 64 64 63 63 63 63 63 63 63
74 74 75 75 76 76 77 78 78 79 80 80 81 82 83 84 85 86 87 88 88 89 90 92 93 94 95 96 97 98 99 100 101 102 103 104 105 106 106 106 105 104 102 101 99 97 96 95 94 93 91 90 89 87 86 85 84 83 81 80 79 79 78 77 76 74 73 72 71 70 68 67 66 65 64 63 62 62 61 61 61 61 61 61 61 61
74 74 75 75 76 76 77 77 78 79 79 80 81 82 83 84 85 87 88 89 90 91 91 92 94 95 96 97 98 98 99 100 101 102 103 104 105 105 104 103 102 100 99 98 97 95 94 93 92 90 89 87 86 84 83 82 80 79 78 77 76 75 74 74 73 72 71 69 68 67 66 64 63 62 61 61 60 59 59 59 59 59 59 58 58 58
74 74 75 75 76 76 77 78 78 79 80 81 82 83 84 85 86 87 88 90 91 92 92 93 94 95 96 97 98 99 100 101 102 102 103 103 103 102 101 100 98 97 96 95 94 93 92 91 89 88 86 84 82 81 79 78 77 76 75 74 73 72 71 71 70 69 68 67 66 65 63 62 61 60 59 58 58 57 57 57 56 56 56 56 56 56
73 74 74 75 76 76 77 78 79 80 81 81 82 83 84 85 86 87 89 90 91 92 93 94 94 95 96 98 99 100 101 102 102 102 102 101 100 99 98 96 95 94 93 92 92 91 90 88 87 85 83 81 79 78 76 75 74 73 72 71 70 69 69 68 68 67 66 65 64 62 61 60 58 57 56 56 55 55 55 55 54 54 54 54 54 53
73 74 74 75 76 77 78 79 79 80 81 82 83 84 84 85 87 88 89 90 91 92 93 93 94 95 97 98 99 100 101 102 102 101 100 98 97 95 94 93 92 91 90 90 89 88 87 86 84 82 80 78 76 75 73 72 70 69 69 68 68 67 66 66 65 64 63 63 62 61 59 58 57 55 54 54 53 53 53 52 52 52 52 51 51 51
73 74 75 76 77 78 78 79 80 81 82 82 83 84 85 86 87 88 89 90 91 92 92 93 94 95 96 98 99 100 101 101 101 100 98 96 94 92 91 90 89 88 88 87 86 85 84 83 81 79 77 75 73 72 70 69 67 66 66 65 65 65 64 63 63 62 61 60 60 59 58 56 55 54 53 52 52 51 51 50 50 49 49 49 48 48
74 75 76 76 77 78 79 80 80 81 82 83 84 84 85 86 87 88 89 89 90 91 92 93 94 95 96 98 99 100 100 100 99 97 95 93 91 90 89 88 87 86 85 84 83 82 81 79 78 76 74 72 70 69 67 66 65 64 63 63 62 62 61 61 60 59 59 58 57 57 56 55 54 53 52 52 51 50 49 49 48 47 47 46 46 46
74 75 76 77 78 79 79 80 81 81 82 83 84 85 85 86 87 87 88 89 90 90 91 93 94 95 96 97 98 98 98 97 95 93 92 90 89 88 87 86 85 84 83 82 80 79 78 76 75 73 71 69 67 66 64 63 62 61 61 60 59 59 58 58 58 57 56 55 55 54 53 53 52 52 51 51 50 50 49 48 46 45 44 44 44 44
75 76 77 78 78 79 79 80 81 82 82 83 84 85 85 86 86 87 87 88 89 90 91 92 94 95 96 97 97 96 95 93 91 90 89 88 87 86 85 84 83 81 80 79 77 76 75 73 72 70 68 66 64 63 62 61 60 59 58 57 56 56 55 55 55 54 54 53 52 51 51 50 50 49 49 49 49 49 48 47 46 44 43 42 42 43
75 76 77 78 78 79 80 80 81 82 82 83 84 84 85 85 86 86 87 88 89 90 91 92 93 95 95 95 94 93 91 90 88 87 86 85 84 84 83 82 80 79 77 76 75 73 72 71 70 68 66 64 62 60 59 59 58 57 57 55 54 53 53 52 52 52 51 50 49 49 48 47 47 47 47 47 47 47 47 46 45 44 42 42 41 42
76 76 77 78 78 79 79 80 81 81 82 83 83 84 84 85 85 86 86 87 88 89 91 92 93 94 94 93 92 90 88 87 85 84 84 83 82 81 80 79 77 76 74 73 72 71 69 68 67 66 64 62 60 58 57 56 56 56 55 54 53 52 51 50 50 49 48 48 47 46 45 45 44 44 44 44 44 45 45 45 44 43 42 41 40 41
Wind_Direction
269 269 270 270 270 271 271 272 273 273 274 275 275 276 277 277 278 278 279 280 280 281 281 282 282 283 284 284 285 285 286 286 287 287 288 288 289 289 289 290 290 290 291 291 291 291 291 291 291 291 291 291 291 291 291 291 291 291 290 290 290 290 290 290 290 290 290 289 289 289 288 288 287 287 287 286 286 286 285 285 285 285 285 284 284 284
269 269 270 270 271 271 271 272 273 273 273 274 275 276 276 277 277 278 279 279 280 280 281 281 282 283 283 284 284 285 286 286 286 287 287 288 288 288 289 289 290 290 290 290 291 291 291 291 291 291 291 291 290 290 290 290 290 290 290 290 290 290 290 290 290 290 289 289 289 288 288 288 287 287 286 286 285 285 285 285 284 284 284 284 284 283
268 269 269 270 270 270 271 271 272 272 273 273 274 275 275 276 277 277 278 278 279 280 280 281 281 282 283 283 284 284 285 285 286 286 287 287 288 288 288 289 289 289 290 290 290 290 290 290 290 290 290 290 290 290 290 290 290 290 290 290 290 290 290 290 289 289 289 289 288 288 288 287 287 286 286 286 285 285 284 284 284 284 284 284 283 283
267 267 268 269 269 269 270 270 271 271 272 272 273 274 274 275 275 276 277 277 278 279 279 280 281 281 282 283 283 284 284 285 285 286 286 287 287 288 288 288 289 289 289 289 289 289 289 289 290 290 290 290 290 290 290 290 290 290 290 290 290 290 289 289 289 289 288 288 288 288 287 287 287 286 286 285 285 285 284 284 284 284 283 283 283 283
265 266 266 267 268 268 269 269 270 270 271 271 272 272 273 273 274 275 276 276 277 278 279 279 280 281 281 282 282 283 284 284 285 285 286 286 287 287 288 288 288 288 289 289 289 289 289 289 289 289 289 290 290 290 290 290 290 290 290 289 289 289 289 289 288 288 288 288 287 287 287 287 286 286 286 285 285 285 284 284 284 284 283 283 283 283
265 265 266 266 267 267 268 268 269 269 270 270 271 271 272 272 273 274 275 275 276 277 278 278 279 280 281 281 282 283 283 284 285 285 286 286 287 287 287 288 288 288 288 289 289 289 289 289 289 289 289 290 290 290 290 290 289 289 289 289 289 289 288 288 288 288 287 287 287 287 287 286 286 286 286 286 285 285 285 284 284 284 283 283 283 283
265 265 266 266 266 267 268 268 269 269 270 270 271 271 272 272 273 273 274 275 276 276 277 278 279 279 280 281 282 282 283 284 284 285 285 286 286 287 287 287 288 288 288 288 289 289 289 289 289 289 290 290 290 289 289 289 289 289 289 289 288 288 288 288 288 287 287 287 287 286 286 286 286 286 286 286 285 285 285 285 284 284 283 283 283 282
265 265 266 266 267 268 268 269 269 270 270 271 271 272 272 273 273 274 274 275 276 276 277 278 278 279 280 281 281 282 283 283 284 284 285 285 286 286 287 287 287 288 288 288 289 289 289 289 289 290 290 289 289 289 289 289 289 289 289 288 288 288 288 288 287 287 287 287 287 286 286 286 286 286 286 286 285 285 285 285 284 284 284 283 283 282
265 266 267 267 268 268 269 270 270 271 271 271 272 272 273 274 274 275 275 276 276 277 277 278 279 279 280 281 281 282 282 283 284 284 285 285 286 286 287 287 287 288 288 288 289 289 289 289 289 289 289 289 289 289 289 289 289 289 288 288 288 288 288 288 287 287 287 287 287 286 286 286 286 286 286 285 285 285 285 285 284 284 284 283 283 282
266 267 268 268 269 269 270 270 271 272 272 272 273 273 274 274 275 276 276 277 277 278 278 279 279 280 280 281 282 282 283 283 284 284 285 285 286 286 287 287 287 288 288 288 289 289 289 289 289 289 289 289 289 289 289 289 289 288 288 288 288 288 288 287 287 287 287 287 287 286 286 286 286 286 285 285 285 285 285 284 284 284 284 283 283 282
268 268 269 269 270 270 271 271 272 272 273 273 274 274 275 275 276 276 277 277 278 279 279 279 280 280 281 281 282 282 283 283 284 284 285 285 286 286 287 287 287 288 288 288 288 289 289 289 289 289 289 289 288 288 288 288 288 288 288 288 288 287 287 287 287 287 287 287 287 286 286 286 286 285 285 285 285 284 284 284 284 283 283 283 282 282
269 270 270 270 271 271 271 272 272 273 273 274 274 275 275 276 276 276 277 277 278 279 279 280 280 281 281 281 282 283 283 284 284 284 285 285 286 286 287 287 287 288 288 288 288 288 288 288 288 288 288 288 288 288 288 288 288 287 287 287 287 287 287 287 287 287 287 287 287 286 286 286 286 285 285 285 284 284 284 283 283 283 283 282 282 281
271 271 271 271 271 272 272 273 273 273 274 274 275 275 276 276 277 277 277 278 278 279 279 280 280 281 281 282 282 283 283 284 284 285 285 286 286 286 287 287 287 287 288 288 288 288 288 288 288 288 288 288 288 288 287 287 287 287 287 287 287 287 287 287 287 287 286 286 286 286 286 286 285 285 285 284 284 284 283 283 283 282 282 282 281 281
272 272 272 272 272 273 273 273 274 274 274 275 275 276 276 277 277 278 278 278 279 279 280 280 281 281 282 282 283 283 284 284 285 285 285 286 286 286 286 287 287 287 287 288 288 288 288 288 288 288 288 288 287 287 287 287 287 287 287 287 287 287 287 286 286 286 286 286 286 286 285 285 285 285 284 284 284 283 283 283 282 282 281 281 281 280
273 273 273 273 273 274 274 274 275 275 275 276 276 277 277 278 278 278 279 279 280 280 281 281 281 282 282 283 283 284 284 285 285 285 286 286 286 286 287 287 287 287 287 287 288 288 288 288 288 287 287 287 287 287 287 287 287 287 287 287 287 286 286 286 286 286 286 285 285 285 285 285 284 284 284 284 283 283 283 282 282 281 281 281 280 280
274 274 274 274 275 275 275 275 276 276 276 277 277 278 278 278 279 279 279 280 280 281 281 282 282 282 283 283 284 284 285 285 285 286 286 286 286 287 287 287 287 287 287 287 287 287 287 287 287 287 287 287 287 287 287 287 287 287 287 286 286 286 286 286 286 285 285 285 285 285 284 284 284 284 283 283 283 282 282 282 281 281 281 280 280 279
275 275 275 276 276 276 277 277 277 277 277 278 278 278 279 279 279 280 280 281 281 281 282 282 283 283 284 284 285 285 285 285 286 286 286 286 287 287 287 287 287 287 287 287 287 287 287 287 287 287 287 287 287 287 287 287 287 287 287 286 286 286 286 286 285 285 285 285 284 284 284 284 283 283 283 282 282 282 282 281 281 280 280 280 279 279
276 276 276 277 277 277 278 278 278 278 278 279 279 279 280 280 280 281 281 281 282 282 283 283 283 284 284 285 285 285 286 286 286 286 287 287 287 287 287 287 287 287 287 287 287 287 287 287 287 287 287 287 287 287 287 287 287 287 287 286 286 286 286 286 285 285 285 284 284 284 284 283 283 282 282 282 281 281 281 280 280 280 279 279 279 278
277 277 277 278 278 278 278 279 279 279 279 280 280 280 280 281 281 282 282 282 283 283 283 284 284 284 285 285 285 286 286 286 287 287 287 287 287 287 287 287 287 287 287 287 287 287 287 287 287 287 287 287 287 287 287 287 287 287 287 287 287 286 286 286 285 285 285 284 284 283 283 282 282 282 281 281 280 280 280 279 279 279 278 278 278 277
277 278 278 278 279 279 279 279 280 280 280 280 281 281 282 282 282 283 283 283 284 284 284 284 285 285 285 285 286 286 287 287 287 287 287 287 287 287 287 287 287 287 287 287 287 287 287 287 287 287 287 287 287 287 287 288 288 288 287 287 287 287 286 286 285 285 284 284 283 283 282 282 281 281 281 280 280 279 279 278 278 278 277 277 277 276
278 278 279 279 279 280 280 280 280 281 281 281 282 282 282 283 283 284 284 284 284 285 285 285 285 285 286 286 286 286 287 287 287 287 287 287 287 287 287 287 287 287 287 287 287 288 288 288 288 288 288 288 288 288 288 288 288 288 288 287 287 287 286 286 285 285 284 284 283 283 282 282 281 281 280 280 279 279 278 278 277 277 276 276 275 275
278 279 279 279 280 280 280 281 281 282 282 282 283 283 283 284 284 284 284 285 285 285 285 285 286 286 286 286 286 287 287 287 287 287 287 287 287 287 287 287 287 287 287 288 288 288 288 288 288 288 288 288 288 288 288 288 288 288 288 287 287 287 286 286 286 285 284 284 283 283 282 282 282 281 281 280 280 279 278 278 277 277 276 275 275 274
278 279 279 280 280 281 281 281 282 282 283 283 283 283 284 284 284 284 285 285 285 285 286 286 286 286 286 286 287 287 287 287 287 287 287 287 287 287 287 288 288 288 288 288 288 288 289 289 289 289 289 289 289 289 288 288 288 288 288 288 287 287 287 286 286 286 285 285 284 284 283 283 282 282 281 280 280 279 279 278 277 276 276 275 274 273
279 279 280 280 281 281 282 282 282 283 283 283 284 284 284 284 285 285 285 285 286 286 286 286 286 287 287 287 287 287 287 287 287 287 288 287 287 288 288 288 288 288 288 289 289 289 289 289 289 289 289 289 289 289 289 289 289 288 288 288 288 288 287 287 287 286 286 285 285 284 284 283 283 282 281 281 280 279 278 278 277 276 275 275 274 273
279 280 280 281 281 282 282 283 283 283 284 284 284 284 285 285 285 285 285 286 286 286 286 286 286 287 287 287 287 287 287 288 288 288 288 288 288 288 288 288 289 289 289 289 289 289 289 289 289 289 289 289 289 289 289 289 289 289 289 289 288 288 288 287 287 287 286 286 285 285 284 284 283 282 281 281 280 279 278 278 277 276 275 274 273 273
280 280 281 281 282 282 283 283 283 284 284 284 284 285 285 285 285 286 286 286 286 286 286 286 287 287 287 287 287 288 288 288 288 289 289 289 289 289 289 289 289 289 289 290 290 290 290 290 290 290 290 290 290 290 290 290 290 290 289 289 289 288 288 288 287 287 287 286 286 285 284 284 283 282 282 281 280 279 278 277 277 276 275 274 273 272
281 281 281 282 282 283 283 283 284 284 284 284 285 285 285 285 285 286 286 286 286 286 287 287 287 287 287 288 288 288 289 289 289 289 289 290 290 290 290 290 290 290 290 290 290 290 290 290 290 290 291 291 291 291 291 290 290 290 290 289 289 289 288 288 288 287 287 286 286 285 284 284 283 282 281 281 280 279 278 277 276 276 275 274 273 272
281 281 282 282 283 283 283 284 284 284 284 285 285 285 285 285 286 286 286 286 287 287 287 287 287 288 288 288 289 289 289 290 290 290 290 290 290 290 290 290 290 290 290 291 291 291 291 291 291 291 291 291 291 291 291 291 291 290 290 290 289 289 289 288 288 287 287 286 286 285 284 284 283 282 281 280 280 279 278 277 276 275 274 274 273 272
281 282 282 283 283 283 284 284 284 284 285 285 285 285 285 286 286 286 286 287 287 287 288 288 288 288 289 289 289 290 290 290 290 290 291 290 290 290 291 291 291 291 291 292 292 292 292 292 292 292 292 292 292 292 291 291 291 290 290 290 289 289 289 288 288 288 287 286 286 285 284 284 283 282 281 281 280 279 278 277 276 275 274 273 272 271
282 282 283 283 283 284 284 284 284 284 285 285 285 285 286 286 286 287 287 287 288 288 288 289 289 289 289 289 290 290 290 290 290 291 291 291 291 291 291 292 292 292 292 293 293 293 293 293 293 292 292 292 292 292 292 291 291 291 290 290 290 289 289 289 288 288 287 287 286 285 285 284 283 282 282 281 280 279 278 277 276 275 274 273 272 271
282 283 283 283 284 284 284 284 284 285 285 285 286 286 286 287 287 287 288 288 288 288 289 289 289 289 289 289 290 290 290 290 290 291 291 291 291 292 292 292 293 293 293 293 293 293 293 293 293 293 293 293 292 292 292 292 291 291 291 290 290 290 290 289 289 288 288 287 287 286 285 284 284 283 282 281 280 280 279 278 277 275 274 273 272 271
283 283 283 283 284 284 284 284 285 285 285 286 286 287 287 287 288 288 288 288 288 289 289 289 289 289 289 289 289 290 290 290 291 291 292 292 292 293 293 293 294 294 294 294 294 294 294 294 294 294 294 293 293 293 293 292 292 292 291 291 291 291 290 290 289 289 288 288 287 286 286 285 284 283 283 282 281 280 279 278 277 275 274 273 272 271
283 283 283 284 284 284 285 285 285 286 286 287 287 287 288 288 288 288 288 289 289 289 289 289 289 289 289 290 290 290 290 291 292 292 293 293 293 294 294 294 294 294 294 294 294 294 294 294 294 294 294 294 294 294 293 293 293 292 292 292 292 291 291 290 290 289 289 288 287 287 286 285 284 284 283 282 281 280 279 278 277 275 274 273 272 271
283 283 284 284 284 285 285 285 286 286 287 287 288 288 288 288 289 289 289 289 289 289 289 289 289 290 290 290 291 291 292 292 293 293 294 294 294 294 295 295 295 295 295 295 295 295 295 295 295 295 295 295 295 294 294 294 294 293 293 293 292 292 292 291 290 290 289 288 288 287 286 285 285 284 283 282 281 280 279 278 277 275 274 273 272 270
283 284 284 284 285 285 286 286 286 287 287 288 288 288 289 289 289 289 289 289 289 289 290 290 290 291 291 291 292 292 293 293 294 294 295 295 295 295 296 296 296 296 296 296 297 297 297 297 297 296 296 296 296 295 295 294 294 294 294 293 293 293 292 291 291 290 290 289 288 287 286 285 285 284 283 282 281 280 279 278 276 275 274 273 271 270
284 284 285 285 286 286 286 287 287 288 288 288 289 289 289 289 289 289 290 290 290 290 290 291 291 292 292 293 293 294 294 295 295 296 296 296 296 296 297 297 297 297 298 298 298 298 298 298 298 297 297 297 296 296 296 295 295 295 294 294 294 293 292 292 291 291 290 289 288 287 287 286 285 284 283 282 280 279 278 277 276 275 274 273 271 270
285 285 286 286 287 287 288 288 288 289 289 289 289 290 290 290 290 290 290 290 291 291 292 292 293 293 293 294 294 295 295 296 296 297 297 297 297 298 298 298 298 299 299 299 299 299 299 299 298 298 298 297 297 297 296 296 296 295 295 295 294 293 293 292 291 291 290 289 289 288 287 286 285 284 283 282 281 280 278 277 276 275 274 273 271 270
286 286 287 287 288 288 289 289 290 290 290 290 290 290 290 290 291 291 291 292 292 293 293 294 294 294 295 295 295 296 296 297 297 298 298 298 299 299 299 299 300 300 300 300 300 299 299 299 299 298 298 298 297 297 297 297 296 296 296 295 294 294 293 293 292 291 290 290 289 288 287 286 285 284 283 282 281 280 279 278 277 275 274 273 271 270
287 288 288 289 289 290 290 290 290 291 291 291 291 291 291 291 292 292 293 293 294 294 295 295 295 296 296 296 297 297 298 298 298 299 299 300 300 300 300 300 301 301 300 300 300 300 300 299 299 299 299 298 298 298 298 297 297 296 296 295 295 294 293 293 292 291 291 290 289 288 287 287 286 285 284 283 282 281 280 278 277 276 274 273 271 270
289 289 290 290 290 291 291 291 291 291 291 291 292 292 292 293 293 294 294 295 295 295 296 296 296 297 297 297 298 298 299 299 300 300 300 301 301 301 301 301 301 301 301 301 300 300 300 300 300 299 299 299 299 298 298 298 297 297 296 296 295 294 294 293 292 292 291 290 289 289 288 288 287 286 285 284 283 282 281 279 278 276 275 273 272 270
290 290 290 291 291 291 291 291 291 292 292 292 293 293 294 294 295 295 296 296 296 296 297 297 297 298 298 299 299 299 300 300 301 301 301 302 302 302 302 302 302 301 301 301 301 301 301 300 300 300 300 299 299 299 299 298 298 297 297 296 295 295 294 293 293 292 291 291 290 289 289 288 288 287 286 285 284 282 281 280 278 276 275 273 272 270
290 290 291 291 291 291 291 292 292 293 293 294 294 295 295 296 296 296 296 297 297 297 298 298 298 299 299 300 300 301 301 301 302 302 302 302 303 302 302 302 302 302 302 301 301 301 301 301 301 301 300 300 300 300 299 299 298 297 297 296 296 295 294 294 293 292 292 291 291 290 290 289 288 288 287 285 284 283 281 280 278 277 275 274 272 271
290 290 291 291 291 292 292 293 293 294 294 295 295 295 296 296 297 297 297 297 298 298 299 299 300 300 300 301 301 302 302 302 303 303 303 303 303 303 303 303 302 302 302 302 302 302 302 302 301 301 301 301 300 300 300 299 298 298 297 297 296 295 294 294 293 293 293 292 292 291 291 290 289 288 287 286 285 283 282 280 278 277 275 274 273 271
290 291 291 292 292 293 293 294 294 295 295 296 296 296 297 297 297 297 298 298 298 299 300 300 301 301 301 302 302 303 303 303 303 304 304 304 303 303 303 303 303 303 302 302 302 302 302 302 302 302 302 301 301 300 300 299 299 298 298 297 296 296 295 295 294 294 294 294 293 292 292 291 290 289 288 286 285 284 282 280 279 278 276 275 274 272
291 292 292 293 293 294 294 295 295 295 296 296 296 297 297 297 298 298 298 299 299 300 300 301 301 302 302 303 303 303 304 304 304 304 304 304 304 304 303 303 303 303 303 303 303 303 303 303 302 302 302 302 301 301 300 300 299 299 298 298 297 296 296 296 296 295 295 295 294 294 293 292 291 290 289 288 286 284 282 281 280 278 277 276 275 274
292 293 294 294 294 295 295 295 296 296 296 297 297 297 298 298 298 299 299 300 300 301 301 302 302 303 303 303 304 304 304 304 305 305 305 304 304 304 304 304 304 304 304 304 303 303 303 303 303 302 302 302 302 301 301 301 300 300 299 298 298 298 297 297 297 297 296 296 295 295 295 294 293 292 291 289 287 285 284 282 281 280 278 277 276 274
294 294 294 295 295 295 296 296 296 297 297 297 298 298 298 299 299 299 300 301 301 302 302 303 303 303 304 304 304 304 305 305 305 305 305 305 305 305 305 305 304 304 304 304 304 304 303 303 303 303 303 302 302 302 302 301 301 300 300 299 299 299 299 298 298 298 297 297 297 296 296 295 295 294 292 291 289 287 285 284 282 281 280 278 276 275
294 295 295 295 295 296 296 296 297 297 298 298 298 299 299 299 300 300 301 301 302 302 303 303 304 304 304 304 305 305 305 305 305 305 306 306 306 305 305 305 305 305 305 305 305 304 304 304 303 303 303 303 303 303 303 302 302 301 300 300 300 300 299 299 298 298 298 297 297 297 296 296 295 294 293 292 291 289 287 286 284 283 281 279 277 275
295 295 295 296 296 296 297 297 297 298 298 299 299 299 300 300 300 301 302 302 303 303 303 304 304 305 305 305 305 305 306 306 306 306 306 306 306 306 306 306 306 306 306 305 305 305 304 304 304 304 304 304 304 304 304 303 303 302 302 301 301 300 300 299 299 298 298 297 297 297 296 295 295 294 293 292 291 290 289 287 286 284 282 280 278 276
295 295 296 296 296 297 297 298 298 298 299 299 299 300 300 301 301 302 302 303 303 304 304 305 305 305 306 306 306 306 306 306 307 307 307 307 307 307 307 307 307 307 306 306 306 305 305 305 305 304 305 305 305 305 305 305 304 304 303 302 302 301 301 300 299 299 298 297 297 296 296 295 294 293 292 291 291 290 289 288 287 286 284 282 279 277
295 295 296 296 297 297 298 298 299 299 299 300 300 300 301 302 302 303 303 304 304 305 305 306 306 306 306 307 307 307 307 307 307 307 307 307 307 307 307 307 307 307 307 306 306 306 306 306 306 305 306 306 306 306 306 306 305 305 304 304 303 302 302 301 300 299 298 298 297 296 295 294 293 292 292 291 290 289 289 288 287 286 285 283 281 278
Height
10574 10573 10573 10573 10572 10571 10570 10568 10568 10567 10565 10563 10563 10562 10561 10560 10558 10557 10555 10554 10553 10551 10550 10548 10547 10546 10545 10543 10541 10540 10539 10538 10536 10535 10534 10533 10531 10530 10529 10528 10526 10525 10525 10523 10522 10521 10520 10518 10517 10516 10515 10513 10511 10510 10509 10507 10506 10505 10503 10501 10500 10498 10496 10495 10493 10492 10491 10490 10489 10488 10488 10487 10487 10486 10486 10486 10485 10484 10483 10483 10483 10482 10482 10481 10481 10481
10567 10566 10566 10566 10565 10564 10562 10561 10560 10560 10559 10557 10556 10555 10555 10553 10551 10550 10548 10547 10546 10545 10543 10541 10540 10539 10537 10536 10535 10533 10531 10530 10528 10527 10526 10525 10523 10522 10521 10520 10519 10518 10516 10516 10515 10513 10511 10510 10508 10507 10506 10505 10503 10501 10500 10499 10497 10496 10494 10492 10491 10489 10487 10486 10484 10483 10481 10480 10479 10478 10478 10477 10477 10476 10476 10476 10476 10475 10475 10474 10474 10473 10473 10473 10473 10473
10560 10560 10559 10558 10558 10558 10556 10554 10553 10553 10553 10551 10550 10549 10548 10547 10545 10543 10541 10540 10538 10537 10536 10535 10533 10532 10530 10528 10527 10525 10524 10522 10520 10519 10518 10517 10516 10515 10513 10512 10511 10510 10509 10508 10506 10505 10503 10501 10500 10498 10497 10496 10494 10493 10491 10490 10488 10486 10485 10483 10481 10480 10478 10476 10475 10474 10472 10471 10470 10469 10468 10467 10466 10466 10466 10466 10466 10466 10466 10465 10465 10465 10465 10464 10463 10464
10554 10553 10552 10551 10551 10551 10550 10549 10548 10548 10547 10546 10545 10543 10542 10540 10538 10536 10534 10533 10532 10530 10528 10527 10526 10525 10523 10521 10519 10518 10516 10515 10513 10511 10510 10509 10508 10506 10505 10504 10503 10501 10500 10499 10498 10496 10495 10493 10491 10490 10488 10486 10485 10483 10482 10480 10479 10477 10475 10474 10472 10471 10469 10468 10466 10465 10463 10462 10461 10460 10458 10457 10457 10456 10456 10456 10456 10456 10456 10456 10456 10456 10455 10455 10454 10454
10548 10548 10546 10545 10545 10545 10544 10543 10543 10543 10541 10540 10539 10538 10536 10534 10532 10530 10528 10527 10526 10524 10521 10520 10519 10518 10516 10513 10511 10510 10508 10506 10505 10503 10502 10500 10499 10498 10496 10495 10494 10493 10491 10490 10488 10486 10485 10484 10482 10480 10479 10477 10476 10474 10473 10471 10470 10468 10466 10465 10463 10461 10460 10458 10457 10456 10454 10453 10451 10450 10449 10448 10447 10446 10446 10446 10446 10446 10446 10446 10446 10446 10446 10446 10446 10445
10541 10541 10540 10540 10539 10538 10537 10536 10537 10536 10536 10535 10533 10531 10530 10528 10526 10525 10523 10521 10520 10518 10516 10513 10512 10511 10509 10506 10505 10503 10501 10499 10498 10495 10494 10492 10491 10489 10488 10486 10485 10483 10481 10480 10478 10477 10475 10474 10473 10471 10470 10468 10466 10465 10463 10461 10460 10458 10456 10455 10453 10452 10450 10449 10448 10446 10445 10444 10443 10441 10440 10439 10438 10437 10436 10436 10435 10435 10435 10436 10436 10436 10436 10436 10436 10436
10534 10534 10534 10533 10533 10532 10531 10531 10530 10530 10529 10528 10526 10524 10523 10522 10521 10520 10518 10515 10514 10512 10510 10508 10506 10504 10502 10500 10498 10496 10494 10492 10490 10488 10486 10485 10483 10481 10479 10477 10475 10474 10472 10470 10468 10467 10465 10464 10462 10461 10459 10458 10456 10455 10453 10451 10450 10448 10447 10445 10444 10442 10441 10440 10438 10437 10436 10435 10433 10433 10431 10430 10429 10428 10426 10426 10425 10425 10425 10425 10425 10426 10426 10426 10427 10426
10528 10527 10526 10527 10526 10525 10524 10523 10523 10522 10521 10520 10518 10516 10515 10515 10513 10513 10511 10510 10508 10506 10504 10502 10500 10497 10495 10493 10491 10490 10488 10485 10483 10481 10479 10477 10475 10473 10470 10468 10466 10465 10463 10461 10459 10457 10455 10453 10452 10450 10449 10447 10446 10445 10443 10441 10440 10438 10437 10435 10434 10432 10431 10430 10428 10427 10426 10425 10424 10423 10422 10421 10420 10419 10418 10416 10416 10415 10415 10415 10415 10415 10416 10416 10416 10417
10523 10521 10520 10520 10520 10520 10518 10515 10513 10514 10514 10513 10511 10510 10508 10507 10506 10504 10503 10502 10501 10499 10497 10496 10493 10490 10488 10486 10485 10483 10481 10478 10476 10475 10473 10470 10467 10464 10462 10460 10458 10455 10453 10451 10449 10447 10445 10443 10442 10440 10439 10437 10435 10434 10433 10431 10430 10428 10426 10425 10424 10422 10421 10420 10418 10417 10416 10415 10415 10413 10413 10412 10411 10410 10409 10408 10406 10405 10405 10404 10404 10404 10405 10405 10406 10406
10516 10516 10515 10513 10512 10512 10511 10508 10505 10504 10505 10506 10505 10503 10501 10501 10499 10496 10494 10493 10491 10490 10490 10488 10486 10483 10480 10478 10476 10475 10474 10471 10469 10467 10465 10463 10460 10456 10453 10451 10449 10446 10444 10441 10440 10438 10436 10434 10432 10430 10429 10427 10425 10424 10422 10421 10420 10418 10416 10415 10414 10413 10411 10410 10408 10407 10406 10405 10404 10403 10403 10402 10401 10400 10400 10398 10397 10396 10395 10395 10394 10394 10394 10395 10395 10396
10510 10509 10508 10506 10505 10503 10503 10501 10499 10496 10496 10497 10496 10495 10493 10493 10493 10491 10488 10485 10482 10481 10481 10480 10478 10475 10473 10470 10468 10466 10465 10464 10462 10459 10456 10455 10452 10449 10446 10443 10440 10438 10436 10433 10430 10428 10426 10425 10423 10421 10419 10417 10415 10414 10413 10411 10410 10408 10407 10406 10405 10403 10401 10400 10399 10397 10396 10395 10394 10393 10392 10391 10391 10390 10390 10388 10388 10387 10386 10385 10385 10384 10384 10385 10385 10386
10503 10502 10501 10500 10498 10496 10495 10493 10492 10491 10490 10490 10488 10486 10484 10483 10484 10484 10482 10478 10475 10473 10472 10470 10468 10466 10465 10463 10460 10458 10456 10455 10453 10451 10448 10446 10443 10440 10438 10435 10432 10430 10427 10425 10421 10419 10416 10415 10413 10411 10408 10407 10406 10404 10403 10401 10401 10400 10398 10397 10396 10394 10393 10391 10390 10388 10386 10385 10384 10383 10382 10381 10380 10380 10379 10378 10378 10377 10376 10376 10375 10375 10375 10375 10375 10376
10495 10495 10493 10491 10490 10488 10486 10485 10485 10483 10483 10482 10481 10479 10476 10475 10475 10475 10475 10471 10468 10465 10465 10463 10460 10456 10455 10453 10452 10450 10448 10446 10445 10443 10440 10438 10435 10431 10430 10427 10424 10421 10418 10416 10413 10410 10407 10405 10403 10401 10398 10396 10395 10394 10393 10392 10391 10390 10389 10388 10386 10385 10384 10382 10381 10379 10378 10376 10375 10373 10372 10371 10370 10369 10368 10368 10368 10367 10366 10366 10366 10365 10365 10365 10365 10366
10487 10486 10485 10483 10481 10480 10479 10478 10478 10476 10475 10474 10473 10472 10470 10468 10466 10466 10465 10462 10459 10457 10456 10456 10452 10448 10445 10444 10443 10441 10440 10438 10436 10434 10431 10428 10426 10423 10421 10419 10415 10412 10410 10408 10404 10400 10397 10396 10394 10391 10388 10386 10385 10383 10382 10381 10381 10380 10380 10378 10377 10376 10375 10373 10371 10370 10368 10367 10365 10364 10363 10361 10360 10360 10359 10358 10357 10357 10356 10356 10356 10355 10355 10355 10355 10355
10479 10478 10477 10475 10474 10473 10472 10471 10471 10469 10467 10466 10465 10464 10462 10460 10458 10457 10456 10453 10451 10448 10448 10447 10444 10440 10437 10435 10434 10433 10431 10430 10427 10425 10423 10419 10416 10414 10413 10411 10407 10403 10400 10398 10395 10391 10388 10386 10385 10381 10378 10376 10375 10373 10372 10371 10371 10370 10370 10369 10368 10366 10365 10364 10363 10361 10360 10358 10356 10355 10354 10353 10351 10350 10349 10348 10347 10346 10346 10346 10345 10345 10345 10345 10345 10345
10471 10471 10470 10468 10466 10465 10465 10464 10463 10461 10460 10458 10457 10456 10455 10452 10450 10448 10447 10445 10443 10441 10440 10438 10435 10431 10428 10425 10425 10425 10424 10421 10418 10416 10414 10411 10407 10404 10403 10402 10399 10394 10390 10389 10386 10383 10379 10377 10375 10371 10369 10366 10365 10363 10362 10361 10361 10360 10360 10359 10358 10357 10356 10355 10353 10352 10350 10349 10348 10346 10345 10343 10342 10341 10340 10338 10337 10336 10336 10335 10335 10335 10335 10335 10335 10335
10465 10464 10463 10461 10460 10458 10456 10456 10456 10455 10452 10451 10449 10448 10446 10444 10442 10440 10438 10436 10435 10433 10431 10429 10427 10424 10420 10416 10413 10413 10415 10414 10411 10407 10405 10402 10398 10395 10393 10393 10390 10385 10381 10379 10376 10373 10370 10368 10365 10362 10359 10357 10355 10353 10351 10351 10350 10350 10350 10349 10348 10348 10346 10345 10344 10343 10341 10340 10338 10337 10335 10334 10333 10331 10330 10329 10328 10326 10325 10325 10324 10324 10323 10323 10323 10324
10458 10457 10456 10455 10453 10451 10449 10448 10447 10446 10445 10443 10441 10440 10438 10436 10434 10432 10430 10428 10426 10425 10423 10420 10418 10416 10413 10408 10405 10402 10403 10405 10403 10398 10395 10393 10390 10386 10384 10383 10380 10376 10372 10370 10367 10364 10361 10358 10355 10352 10350 10347 10345 10343 10341 10341 10340 10339 10339 10338 10338 10338 10337 10336 10335 10333 10332 10330 10328 10327 10325 10324 10323 10321 10320 10319 10318 10316 10315 10315 10314 10313 10313 10313 10313 10313
10451 10450 10450 10448 10446 10443 10442 10441 10440 10438 10436 10435 10433 10431 10430 10427 10425 10424 10423 10421 10418 10416 10415 10412 10409 10406 10404 10401 10397 10394 10394 10395 10394 10390 10386 10383 10380 10377 10375 10373 10371 10366 10363 10360 10357 10355 10352 10349 10346 10343 10340 10338 10335 10333 10331 10330 10330 10328 10328 10328 10327 10327 10326 10326 10325 10323 10322 10320 10319 10317 10315 10314 10312 10311 10310 10308 10307 10306 10305 10305 10303 10303 10302 10302 10301 10301
10444 10443 10442 10441 10439 10436 10435 10433 10432 10431 10430 10428 10426 10424 10422 10420 10417 10416 10414 10412 10410 10408 10406 10404 10401 10398 10395 10392 10389 10386 10385 10386 10385 10381 10378 10375 10372 10368 10365 10364 10361 10357 10353 10350 10348 10346 10343 10340 10337 10333 10331 10328 10326 10323 10322 10321 10320 10318 10317 10316 10316 10315 10315 10314 10313 10313 10311 10310 10308 10306 10305 10303 10301 10300 10298 10298 10296 10295 10295 10293 10293 10292 10291 10291 10291 10290
10437 10435 10434 10434 10433 10430 10427 10425 10425 10423 10422 10421 10419 10416 10414 10412 10410 10408 10405 10403 10401 10400 10397 10395 10392 10389 10386 10385 10381 10378 10376 10377 10376 10373 10370 10367 10364 10360 10356 10355 10352 10348 10344 10341 10338 10336 10334 10331 10328 10324 10321 10319 10316 10314 10312 10311 10310 10308 10307 10306 10305 10304 10303 10302 10301 10301 10300 10298 10297 10295 10293 10291 10290 10288 10287 10286 10285 10283 10283 10281 10281 10280 10280 10280 10279 10279
10431 10428 10427 10426 10426 10424 10421 10419 10417 10416 10415 10413 10411 10409 10406 10405 10402 10400 10397 10395 10393 10391 10388 10386 10383 10381 10378 10376 10373 10370 10368 10368 10366 10364 10361 10359 10355 10350 10347 10346 10343 10340 10335 10332 10330 10328 10325 10322 10318 10315 10312 10310 10307 10305 10303 10301 10300 10298 10296 10295 10294 10293 10291 10290 10289 10288 10286 10285 10284 10283 10281 10279 10278 10276 10275 10273 10271 10270 10270 10268 10268 10267 10267 10266 10266 10266
10425 10423 10421 10420 10419 10417 10415 10413 10411 10410 10408 10406 10405 10402 10400 10397 10395 10392 10390 10387 10385 10383 10380 10378 10375 10372 10370 10367 10364 10361 10359 10358 10357 10356 10353 10350 10346 10341 10338 10337 10335 10331 10326 10323 10321 10319 10316 10312 10309 10306 10303 10300 10297 10295 10293 10291 10289 10287 10286 10284 10283 10281 10279 10277 10276 10274 10273 10271 10270 10269 10267 10266 10264 10263 10261 10260 10258 10256 10255 10255 10253 10253 10253 10253 10253 10253
10420 10417 10415 10414 10412 10411 10409 10406 10405 10403 10401 10399 10397 10395 10392 10390 10388 10385 10383 10380 10378 10375 10373 10370 10367 10364 10360 10358 10355 10353 10350 10348 10348 10347 10345 10341 10337 10333 10330 10328 10326 10322 10318 10315 10313 10311 10307 10303 10300 10296 10295 10291 10288 10285 10283 10281 10278 10276 10274 10273 10270 10268 10266 10265 10262 10261 10259 10257 10256 10255 10253 10251 10250 10248 10247 10245 10244 10242 10241 10240 10239 10238 10238 10238 10238 10238
10413 10411 10410 10408 10406 10405 10402 10400 10398 10396 10394 10392 10390 10387 10385 10383 10380 10378 10376 10373 10371 10368 10365 10363 10360 10356 10352 10350 10346 10343 10340 10340 10340 10339 10336 10332 10328 10324 10321 10320 10318 10314 10310 10306 10304 10303 10299 10295 10290 10287 10285 10282 10278 10275 10272 10270 10267 10265 10262 10260 10258 10256 10253 10251 10249 10247 10245 10243 10242 10240 10238 10237 10235 10234 10232 10231 10229 10228 10226 10225 10224 10224 10223 10223 10223 10224
10407 10405 10403 10401 10400 10398 10396 10394 10391 10390 10387 10385 10383 10380 10378 10375 10373 10370 10368 10365 10363 10361 10358 10355 10351 10348 10345 10342 10339 10335 10331 10331 10330 10330 10327 10323 10319 10315 10311 10310 10309 10306 10302 10298 10295 10293 10290 10286 10281 10278 10275 10273 10269 10265 10261 10259 10256 10253 10250 10248 10245 10243 10240 10238 10236 10234 10232 10230 10228 10226 10224 10223 10221 10219 10218 10216 10214 10213 10212 10211 10210 10209 10209 10209 10209 10209
10401 10399 10397 10395 10393 10391 10390 10387 10385 10383 10381 10378 10376 10373 10371 10368 10366 10363 10360 10357 10356 10354 10351 10347 10344 10340 10337 10334 10331 10327 10324 10322 10321 10320 10318 10315 10311 10306 10301 10301 10300 10298 10294 10290 10287 10284 10281 10277 10272 10268 10265 10262 10258 10255 10251 10248 10244 10241 10239 10236 10233 10230 10228 10225 10223 10221 10219 10217 10214 10213 10210 10208 10206 10205 10203 10202 10201 10199 10198 10197 10196 10196 10196 10196 10196 10196
10395 10393 10391 10389 10387 10385 10383 10381 10378 10376 10374 10371 10369 10367 10365 10362 10359 10356 10352 10350 10348 10346 10343 10340 10336 10333 10330 10326 10323 10320 10316 10314 10313 10311 10310 10307 10303 10297 10293 10292 10291 10289 10286 10283 10279 10275 10271 10267 10263 10258 10255 10251 10248 10244 10240 10236 10233 10229 10226 10223 10220 10218 10214 10213 10211 10208 10206 10204 10201 10199 10197 10195 10193 10191 10189 10188 10187 10186 10185 10184 10184 10183 10183 10183 10183 10183
10388 10386 10385 10383 10381 10378 10376 10374 10371 10370 10367 10365 10362 10360 10358 10356 10353 10349 10345 10343 10341 10339 10335 10332 10329 10326 10323 10319 10315 10311 10308 10306 10305 10303 10301 10298 10293 10288 10285 10284 10282 10279 10276 10275 10270 10265 10260 10256 10253 10249 10245 10241 10236 10232 10229 10225 10221 10218 10214 10211 10208 10205 10203 10200 10198 10196 10194 10191 10189 10186 10184 10182 10180 10178 10177 10175 10174 10173 10172 10171 10171 10171 10171 10171 10170 10170
10382 10380 10378 10376 10375 10372 10370 10367 10365 10363 10360 10358 10355 10353 10351 10349 10346 10343 10340 10337 10335 10331 10328 10325 10321 10319 10316 10313 10309 10305 10300 10298 10298 10297 10295 10291 10285 10280 10277 10276 10273 10270 10267 10266 10263 10256 10250 10245 10241 10239 10236 10231 10226 10221 10217 10214 10210 10206 10203 10199 10196 10193 10191 10188 10186 10184 10181 10179 10176 10174 10171 10169 10168 10166 10164 10163 10161 10161 10159 10159 10159 10159 10158 10158 10158 10157
10376 10374 10372 10370 10368 10366 10363 10361 10358 10356 10353 10351 10349 10346 10344 10342 10340 10336 10333 10331 10328 10325 10321 10318 10315 10312 10310 10306 10303 10298 10293 10290 10290 10290 10288 10283 10278 10272 10269 10267 10263 10260 10256 10256 10254 10249 10242 10234 10229 10226 10224 10221 10216 10210 10205 10201 10198 10194 10191 10188 10184 10181 10179 10177 10174 10172 10169 10166 10164 10161 10159 10157 10155 10153 10152 10151 10149 10148 10148 10147 10146 10146 10146 10146 10145 10144
10370 10368 10366 10363 10361 10360 10357 10355 10352 10350 10347 10345 10343 10340 10338 10335 10333 10330 10327 10324 10321 10318 10315 10311 10308 10305 10303 10300 10296 10292 10288 10284 10282 10281 10280 10276 10270 10265 10260 10258 10255 10250 10246 10244 10243 10239 10234 10228 10221 10215 10211 10208 10204 10199 10194 10190 10186 10183 10179 10176 10173 10170 10167 10165 10163 10160 10157 10154 10152 10149 10148 10145 10143 10142 10140 10139 10138 10136 10136 10135 10134 10134 10134 10133 10133 10133
10363 10361 10359 10357 10355 10353 10351 10348 10346 10344 10341 10339 10336 10333 10331 10328 10326 10323 10320 10318 10315 10312 10309 10305 10302 10299 10296 10293 10290 10286 10281 10278 10275 10273 10271 10267 10262 10256 10252 10249 10245 10241 10236 10233 10230 10228 10224 10219 10213 10207 10201 10196 10192 10188 10184 10179 10175 10171 10168 10166 10162 10159 10156 10153 10151 10148 10146 10143 10141 10138 10136 10134 10133 10131 10129 10128 10126 10125 10124 10123 10123 10122 10122 10122 10122 10122
10357 10355 10353 10351 10349 10346 10345 10343 10340 10338 10335 10333 10330 10327 10325 10322 10319 10316 10313 10311 10308 10305 10302 10299 10296 10292 10289 10285 10281 10278 10274 10271 10268 10266 10263 10259 10254 10248 10243 10239 10236 10231 10228 10223 10218 10214 10211 10207 10203 10197 10192 10186 10180 10176 10173 10169 10165 10161 10158 10154 10151 10148 10144 10141 10139 10137 10134 10132 10129 10128 10126 10124 10122 10120 10119 10117 10116 10114 10113 10112 10111 10111 10111 10111 10111 10111
10351 10349 10347 10345 10343 10341 10338 10336 10334 10331 10329 10326 10324 10321 10318 10315 10312 10310 10306 10304 10301 10298 10295 10293 10290 10286 10283 10278 10275 10270 10265 10262 10260 10258 10255 10250 10246 10240 10235 10229 10225 10221 10218 10212 10207 10203 10199 10194 10189 10185 10181 10176 10169 10164 10161 10158 10155 10151 10147 10144 10141 10137 10134 10131 10128 10126 10123 10121 10119 10117 10115 10113 10112 10110 10109 10107 10106 10104 10103 10102 10101 10101 10101 10101 10101 10101
10345 10343 10341 10339 10337 10335 10332 10330 10328 10325 10323 10320 10318 10315 10312 10309 10306 10303 10300 10297 10294 10291 10288 10285 10282 10279 10276 10272 10268 10263 10258 10254 10251 10248 10245 10241 10236 10231 10226 10220 10215 10211 10207 10202 10196 10191 10188 10183 10178 10173 10169 10165 10159 10154 10150 10147 10144 10141 10138 10134 10130 10126 10123 10121 10118 10116 10113 10111 10109 10106 10104 10103 10101 10100 10099 10098 10096 10095 10094 10093 10091 10091 10091 10091 10091 10091
10338 10336 10335 10333 10331 10328 10326 10323 10321 10319 10316 10313 10311 10308 10305 10302 10299 10296 10293 10290 10287 10284 10281 10278 10274 10271 10268 10265 10261 10256 10252 10247 10243 10239 10235 10231 10227 10222 10216 10210 10204 10200 10196 10191 10186 10181 10176 10172 10168 10163 10158 10154 10150 10146 10141 10137 10134 10131 10127 10124 10120 10116 10113 10111 10108 10106 10104 10101 10099 10097 10094 10093 10092 10091 10089 10088 10088 10086 10084 10083 10083 10082 10081 10081 10081 10081
10332 10330 10328 10326 10324 10322 10320 10316 10315 10312 10310 10307 10304 10301 10298 10295 10292 10289 10286 10283 10280 10276 10273 10270 10266 10262 10259 10256 10253 10249 10245 10240 10236 10231 10226 10222 10218 10213 10207 10201 10194 10189 10185 10181 10176 10171 10166 10162 10158 10153 10148 10144 10140 10136 10132 10128 10124 10121 10118 10114 10110 10107 10104 10101 10099 10097 10094 10092 10089 10088 10086 10084 10083 10082 10081 10079 10078 10077 10076 10075 10074 10073 10073 10073 10073 10073
10326 10324 10321 10320 10318 10315 10313 10310 10308 10305 10303 10300 10298 10295 10291 10288 10285 10281 10279 10276 10272 10269 10265 10261 10258 10254 10250 10247 10244 10240 10236 10232 10228 10223 10218 10213 10208 10203 10198 10191 10185 10179 10174 10170 10166 10161 10158 10153 10148 10144 10139 10135 10131 10127 10123 10119 10116 10113 10109 10105 10101 10098 10094 10092 10089 10088 10086 10083 10081 10079 10077 10076 10074 10073 10072 10071 10070 10069 10068 10066 10066 10064 10064 10064 10064 10063
10320 10318 10315 10313 10311 10309 10306 10304 10301 10299 10296 10293 10290 10288 10285 10281 10278 10274 10271 10268 10265 10261 10258 10254 10250 10246 10242 10239 10235 10231 10228 10223 10219 10214 10209 10204 10199 10193 10188 10182 10176 10171 10165 10160 10156 10151 10148 10144 10139 10135 10131 10128 10123 10119 10114 10111 10108 10104 10101 10097 10093 10089 10086 10083 10081 10079 10077 10074 10073 10071 10069 10068 10067 10065 10064 10063 10061 10060 10059 10058 10057 10056 10056 10055 10055 10054
10314 10311 10310 10308 10305 10303 10301 10298 10295 10293 10290 10286 10283 10280 10277 10274 10270 10266 10263 10260 10256 10253 10250 10246 10243 10238 10234 10230 10227 10223 10219 10215 10210 10205 10201 10195 10189 10184 10178 10173 10168 10162 10156 10151 10146 10142 10138 10134 10130 10126 10123 10119 10116 10112 10108 10103 10099 10096 10093 10089 10086 10081 10078 10074 10072 10070 10068 10066 10064 10063 10061 10061 10059 10058 10056 10055 10054 10053 10051 10050 10049 10048 10048 10047 10047 10046
10309 10306 10304 10302 10300 10297 10295 10292 10289 10286 10283 10280 10277 10274 10271 10267 10263 10260 10256 10252 10248 10245 10242 10239 10234 10230 10225 10221 10217 10214 10211 10206 10202 10198 10192 10187 10181 10176 10169 10164 10159 10153 10148 10143 10138 10133 10129 10126 10121 10118 10114 10111 10108 10104 10100 10096 10092 10089 10085 10082 10078 10074 10071 10067 10064 10062 10060 10059 10058 10056 10054 10053 10052 10051 10049 10047 10046 10044 10043 10043 10041 10040 10039 10039 10039 10039
10303 10301 10299 10296 10294 10291 10288 10285 10283 10280 10276 10274 10271 10268 10265 10261 10257 10253 10249 10245 10241 10238 10234 10231 10227 10223 10218 10213 10208 10204 10200 10196 10193 10189 10184 10179 10173 10168 10161 10156 10150 10145 10140 10135 10129 10124 10120 10117 10113 10109 10106 10103 10100 10097 10093 10089 10085 10081 10078 10074 10071 10068 10063 10060 10057 10055 10053 10052 10050 10049 10048 10046 10045 10044 10042 10040 10039 10037 10036 10035 10034 10033 10033 10032 10032 10032
10298 10295 10293 10290 10288 10285 10282 10279 10276 10273 10270 10267 10264 10261 10258 10255 10251 10247 10243 10238 10234 10231 10227 10223 10219 10214 10210 10205 10200 10196 10191 10186 10183 10179 10175 10171 10166 10160 10154 10148 10143 10138 10133 10128 10122 10117 10113 10109 10105 10102 10099 10096 10093 10089 10086 10083 10078 10074 10070 10067 10064 10060 10056 10053 10051 10049 10047 10045 10043 10042 10041 10039 10038 10037 10035 10033 10032 10030 10029 10028 10027 10026 10026 10026 10026 10026
10292 10290 10287 10285 10281 10279 10276 10273 10270 10267 10264 10261 10258 10255 10251 10248 10245 10241 10236 10232 10228 10224 10220 10216 10212 10208 10203 10198 10193 10188 10183 10178 10173 10169 10166 10161 10157 10152 10147 10141 10136 10131 10125 10120 10115 10111 10106 10101 10098 10094 10091 10089 10086 10083 10079 10076 10072 10068 10064 10060 10056 10053 10050 10048 10045 10043 10041 10039 10037 10035 10034 10033 10032 10030 10029 10027 10025 10024 10023 10021 10021 10021 10020 10020 10020 10020
10286 10284 10281 10278 10275 10273 10270 10266 10264 10261 10258 10255 10251 10248 10245 10241 10238 10234 10230 10226 10222 10218 10213 10209 10205 10201 10196 10191 10186 10181 10175 10169 10164 10160 10156 10152 10148 10143 10139 10134 10129 10124 10118 10113 10108 10103 10099 10095 10091 10088 10084 10082 10079 10076 10073 10069 10066 10062 10058 10054 10051 10047 10044 10042 10039 10038 10035 10033 10031 10029 10028 10026 10025 10023 10022 10020 10019 10017 10016 10016 10015 10015 10015 10015 10014 10014
10281 10278 10275 10272 10269 10266 10263 10261 10258 10255 10251 10248 10245 10242 10239 10235 10231 10228 10223 10219 10216 10211 10207 10203 10198 10194 10189 10184 10179 10174 10169 10163 10157 10152 10148 10143 10139 10134 10130 10126 10121 10116 10111 10106 10101 10097 10093 10088 10084 10081 10079 10076 10073 10069 10066 10063 10059 10056 10052 10049 10045 10043 10039 10036 10034 10032 10030 10028 10026 10024 10022 10021 10019 10018 10016 10014 10012 10011 10010 10010 10010 10010 10010 10009 10009 10008
10275 10272 10269 10266 10263 10260 10258 10255 10252 10249 10245 10242 10238 10235 10232 10229 10225 10221 10217 10213 10209 10205 10201 10196 10191 10186 10182 10177 10172 10167 10162 10156 10151 10146 10141 10136 10131 10126 10121 10117 10113 10109 10104 10099 10095 10090 10086 10082 10078 10075 10073 10071 10068 10064 10060 10057 10053 10050 10047 10044 10041 10038 10035 10031 10029 10027 10025 10023 10021 10019 10018 10016 10014 10012 10010 10008 10006 10005 10004 10004 10004 10004 10004 10004 10004 10003
10269 10266 10263 10260 10257 10255 10251 10249 10246 10243 10239 10236 10232 10228 10225 10222 10219 10215 10211 10207 10203 10199 10194 10189 10184 10179 10174 10169 10164 10159 10154 10149 10144 10139 10134 10129 10124 10119 10114 10110 10106 10101 10097 10093 10088 10084 10079 10076 10072 10069 10066 10064 10062 10059 10055 10051 10048 10044 10041 10039 10036 10034 10031 10028 10024 10022 10020 10018 10016 10014 10013 10011 10009 10008 10006 10003 10001 9999 9998 9998 9998 9999 9999 9999 9998 9997
10264 10261 10258 10255 10252 10249 10246 10243 10240 10236 10233 10229 10226 10222 10219 10215 10212 10209 10205 10201 10197 10193 10188 10183 10178 10173 10167 10162 10157 10152 10147 10143 10138 10133 10128 10123 10118 10113 10108 10104 10099 10095 10091 10086 10082 10078 10074 10069 10066 10063 10061 10059 10057 10054 10050 10046 10042 10039 10036 10033 10031 10029 10026 10023 10020 10018 10016 10014 10012 10011 10009 10007 10005 10003 10001 9999 9997 9995 9994 9993 9993 9993 9994 9993 9993 9991
10258 10255 10253 10250 10246 10243 10241 10238 10234 10231 10227 10223 10219 10216 10213 10209 10206 10202 10198 10194 10190 10186 10181 10176 10171 10166 10160 10154 10149 10145 10141 10136 10131 10126 10121 10116 10112 10107 10102 10098 10094 10089 10085 10080 10076 10072 10068 10064 10060 10056 10054 10053 10052 10049 10046 10041 10038 10034 10031 10028 10026 10024 10021 10019 10016 10013 10011 10009 10008 10006 10004 10003 10001 9999 9997 9995 9993 9991 9989 9988 9988 9988 9988 9988 9988 9986